x

Kenosha, Wi (knsw3) Weather Station

6:50am - Wed 29th Mar 2017 All times are CDT. -5 hours from GMT.

  • Wind
    9mph, 10mph gusts
  • Air Temp 32°f
  • Sea Pressure 1024.7mb
  • Kenosha, Wi
  • Kenosha, Wi

More Historic Weather Station data

Upgrade to MSW Pro to gain access to the past 30 days of data for over 8000 Wavebouys and Weather Stations around the globe.

Join Pro

Comparision Forecast

View Surf forecast
   
Wed 03/29 6:50am 9 10 mph 1024.7mb 32f
6:40am 8 9 mph 1024.7mb 32f
6:30am 8 10 mph 1024.7mb 32f
6:20am 8 9 mph 1024.4mb 32f
6:10am 6 8 mph 1024.7mb 31f
6:00am 6 7 mph 1024.7mb 31f
5:50am 5 7 mph 1024.7mb 31f
5:40am 6 8 mph 1024.4mb 31f
5:30am 5 7 mph 1024.4mb 31f
5:20am 6 7 mph 1024mb 31f
5:10am 5 8 mph 1024mb 31f
5:00am 7 8 mph 1024.4mb 31f
4:50am 5 7 mph 1024.4mb 31f
4:40am 5 7 mph 1024.4mb 31f
4:30am 3 6 mph 1024.4mb 31f
4:20am 5 6 mph 1024mb 31f
4:10am 3 6 mph 1024.4mb 31f
4:00am 5 6 mph 1024mb 31f
3:50am 2 5 mph 1024mb 31f
3:40am  -  2 mph 1024mb 32f
3:30am  -  2 mph 1024mb 32f
3:20am  -  mph 1024.4mb 32f
3:10am  -  mph 1024.4mb 32f
3:00am  -  3 mph 1024mb 32f
2:50am  -  mph 1024mb 32f
2:40am  -  mph 1023.7mb 33f
2:30am  -  mph 1023.7mb 33f
2:20am  -  mph 1023.7mb 32f
2:10am  -  mph 1023.7mb 33f
2:00am  -  mph 1023.7mb 33f
1:50am  -  3 mph 1023.7mb 33f
1:40am  -  3 mph 1023.7mb 33f
1:30am  -  2 mph 1024mb 33f
1:20am  -  6 mph 1024mb 33f
1:10am 2 5 mph 1023.7mb 33f
1:00am 3 5 mph 1023.7mb 33f
12:50am 3 7 mph 1024mb 34f
12:40am 5 7 mph 1024mb 34f
12:30am 6 7 mph 1024mb 34f
12:20am 5 9 mph 1024.4mb 34f
12:10am  -  3 mph 1024.4mb 34f
12:00am  -  7 mph 1024mb 34f
Tue 03/28 11:50pm 5 8 mph 1024mb 34f
11:40pm 7 9 mph 1024mb 34f
11:30pm 8 13 mph 1024.4mb 34f
11:20pm 11 14 mph 1024mb 35f
11:10pm 11 14 mph 1024mb 34f
11:00pm 11 15 mph 1024mb 34f
10:50pm 13 15 mph 1024mb 35f
10:40pm 11 15 mph 1024mb 35f
10:30pm 11 15 mph 1024mb 35f
10:20pm 13 15 mph 1024mb 35f
10:10pm 13 15 mph 1024mb 35f
10:00pm 14 15 mph 1024mb 35f
9:50pm 14 17 mph 1023.7mb 35f
9:40pm 14 16 mph 1023.7mb 35f
9:30pm 14 15 mph 1023.7mb 35f
9:20pm 11 15 mph 1023.7mb 35f
9:10pm 13 16 mph 1023.7mb 35f
9:00pm 14 15 mph 1023.7mb 35f
8:50pm 11 14 mph 1023.4mb 35f
8:40pm 9 13 mph 1023.4mb 35f
8:30pm 11 14 mph 1023mb 35f
8:20pm 10 13 mph 1023mb 35f
8:10pm 11 13 mph 1022.7mb 34f
8:00pm 9 13 mph 1022.7mb 35f
7:50pm 11 15 mph 1022.7mb 34f
7:40pm 11 14 mph 1022.4mb 35f
7:30pm 13 14 mph 1022.4mb 34f
7:20pm 13 15 mph 1022.4mb 35f
7:10pm 13 16 mph 1022.4mb 35f
7:00pm 14 15 mph 1022mb 34f
6:50pm 13 16 mph 1022mb 35f
6:40pm 13 16 mph 1022mb 35f
6:30pm 15 17 mph 1022mb 34f
6:20pm 15 17 mph 1022mb 34f
6:10pm 15 18 mph 1022mb 34f
6:00pm 16 18 mph 1022mb 34f
5:50pm 15 18 mph 1022mb 35f
5:40pm 14 18 mph 1022mb 35f
5:30pm 15 18 mph 1022mb 35f
5:20pm 15 18 mph 1022mb 35f
5:10pm 16 17 mph 1022mb 35f
5:00pm 15 17 mph 1021.7mb 35f
4:50pm 13 16 mph 1022mb 35f
4:40pm 14 15 mph 1021.7mb 36f
4:30pm 13 16 mph 1021.7mb 36f
4:20pm 15 16 mph 1021.7mb 35f
4:10pm 13 16 mph 1021.3mb 36f
4:00pm 14 17 mph 1021.7mb 36f
3:50pm 14 16 mph 1021.7mb 36f
3:40pm 15 20 mph 1021.7mb 36f
3:30pm 16 17 mph 1021.3mb 36f
3:20pm 14 18 mph 1021.3mb 36f
3:10pm 15 18 mph 1021.3mb 36f
3:00pm 17 18 mph 1021mb 36f
2:50pm 15 17 mph 1021mb 37f
2:40pm 16 18 mph 1021.3mb 36f
2:30pm 17 23 mph 1021.3mb 37f
2:20pm 20 21 mph 1021mb 37f
2:10pm 20 22 mph 1021mb 37f
2:00pm 18 22 mph 1021mb 37f
1:50pm 20 21 mph 1021mb 37f
1:40pm 17 20 mph 1021mb 37f
1:30pm 17 21 mph 1021mb 37f
1:20pm 18 21 mph 1021mb 37f
1:10pm 17 20 mph 1021mb 37f
1:00pm 17 20 mph 1021mb 37f
12:50pm 18 21 mph 1020.7mb 37f
12:40pm 17 21 mph 1020.7mb 37f
12:30pm 17 18 mph 1021mb 37f
12:20pm 16 21 mph 1021mb 37f
12:10pm 18 21 mph 1020.3mb 37f
12:00pm 18 21 mph 1020.7mb 37f
11:50am 20 21 mph 1020.7mb 37f
11:40am 17 20 mph 1020.7mb 37f
11:30am 17 20 mph 1020.7mb 37f
11:20am 18 21 mph 1020.7mb 38f
11:10am 16 18 mph 1020.7mb 38f
11:00am 16 18 mph 1020.7mb 38f
10:50am 16 17 mph 1020.7mb 38f
10:40am 15 17 mph 1020.7mb 38f
10:30am 14 17 mph 1020.7mb 39f
10:20am 15 17 mph 1020mb 39f
10:10am 14 17 mph 1020mb 39f
10:00am 14 16 mph 1020mb 39f
9:50am 13 15 mph 1020mb 38f
9:40am 14 16 mph 1020mb 38f
9:30am 14 18 mph 1020mb 39f
9:20am 16 17 mph 1019.6mb 39f
9:10am 15 17 mph 1019.6mb 39f
9:00am 15 17 mph 1019.6mb 39f
8:50am 11 13 mph 1019.6mb 39f
8:40am 10 14 mph 1019.6mb 38f
8:30am 13 16 mph 1019.6mb 38f
8:20am 14 18 mph 1019.3mb 38f
8:10am 18 20 mph 1019.3mb 38f
8:00am 13 15 mph 1019.3mb 39f
7:50am 13 16 mph 1019.3mb 39f
7:40am 13 16 mph 1019mb 39f
7:30am 15 16 mph 1019mb 39f
7:20am 13 16 mph 1019mb 39f
7:10am 13 16 mph 1018.6mb 39f
7:00am 10 14 mph 1018.6mb 39f
6:50am 11 15 mph 1018.6mb 39f
6:40am 14 18 mph 1018.6mb 39f
6:30am 16 18 mph 1018.3mb 39f
6:20am 16 18 mph 1017.9mb 39f
6:10am 16 18 mph 1017.9mb 39f
6:00am 15 21 mph 1017.9mb 39f
5:50am 17 22 mph 1017.6mb 39f
5:40am 15 21 mph 1017.6mb 39f
5:30am 16 20 mph 1017.3mb 39f
5:20am 17 20 mph 1016.9mb 39f
5:10am 15 21 mph 1016.9mb 39f
5:00am 14 18 mph 1017.3mb 39f
4:50am 16 20 mph 1016.9mb 39f
4:40am 15 20 mph 1016.9mb 39f
4:30am 16 20 mph 1016.6mb 39f
4:20am 14 16 mph 1016.6mb 39f
4:10am 14 16 mph 1016.6mb 39f
4:00am 13 15 mph 1016.6mb 39f
3:50am 13 15 mph 1016.6mb 39f
3:40am 13 15 mph 1016.6mb 39f
3:30am 14 16 mph 1016.6mb 39f
3:20am 15 17 mph 1016.6mb 39f
3:10am 15 18 mph 1016.3mb 39f
3:00am 15 18 mph 1016.3mb 39f
2:50am 16 18 mph 1016.3mb 39f
2:40am 15 20 mph 1016.3mb 39f
2:30am 15 18 mph 1016.3mb 39f
2:20am 15 18 mph 1016.3mb 39f
2:10am 14 16 mph 1016.3mb 38f
2:00am 13 15 mph 1016.3mb 38f
1:50am 11 13 mph 1016.3mb 39f
1:40am 11 14 mph 1016.3mb 39f
1:30am 10 13 mph 1016.3mb 39f
1:20am 10 11 mph 1016.3mb 39f
1:10am 10 11 mph 1016.3mb 39f
1:00am 9 11 mph 1016.3mb 39f
12:50am 9 11 mph 1016.3mb 39f
12:40am 9 11 mph 1016.3mb 39f
12:30am 8 10 mph 1015.9mb 39f
12:20am 8 9 mph 1015.9mb 39f
12:10am 7 9 mph 1015.9mb 39f
12:00am 7 10 mph 1015.9mb 39f
Mon 03/27 11:50pm 8 10 mph 1015.9mb 39f
11:40pm 8 9 mph 1015.9mb 39f
11:30pm 8 11 mph 1015.9mb 38f
11:20pm 11 15 mph 1015.9mb 38f
11:10pm 13 15 mph 1015.9mb 38f
11:00pm 14 15 mph 1015.9mb 38f
10:50pm 13 14 mph 1015.9mb 38f
10:40pm 11
mph
1015.9mb 38f
10:30pm 10 11 mph 1015.9mb 38f
10:20pm 9 10 mph 1015.9mb 38f
10:10pm 8 9 mph 1015.9mb 38f
10:00pm 7 8 mph 1015.6mb 38f
9:50pm 8 9 mph 1015.6mb 38f
9:40pm 6 9 mph 1015.6mb 38f
9:30pm 8 10 mph 1015.6mb 38f
9:20pm 8 9 mph 1015.6mb 38f
9:10pm 8 10 mph 1015.6mb 38f
9:00pm 8 10 mph 1015.6mb 38f
8:50pm 8 10 mph 1015.2mb 38f
8:40pm 9 13 mph 1014.9mb 38f
8:30pm 10 13 mph 1014.9mb 38f
8:20pm 10 11 mph 1014.9mb 38f
8:10pm 10 13 mph 1014.9mb 38f
8:00pm 9 11 mph 1014.6mb 38f
7:50pm 8 9 mph 1014.6mb 38f
7:40pm 8 9 mph 1014.6mb 38f
7:30pm 7 9 mph 1014.6mb 38f
7:20pm 8 9 mph 1014.2mb 38f
7:10pm 8 9 mph 1014.2mb 38f
7:00pm 8 10 mph 1014.2mb 38f
6:50pm 8 11 mph 1013.9mb 38f
6:40pm 9 13 mph 1013.9mb 38f
6:30pm 10 11 mph 1013.9mb 38f
6:20pm 9 10 mph 1013.9mb 38f
6:10pm 9
mph
1013.9mb 38f
6:00pm 7 8 mph 1013.9mb 38f
5:50pm 6 7 mph 1013.5mb 38f
5:40pm 6 8 mph 1013.5mb 38f
5:30pm 7 8 mph 1013.5mb 38f
5:20pm 7
mph
1013.9mb 38f
5:10pm 5 6 mph 1013.9mb 38f
5:00pm 2 3 mph 1013.9mb 39f
4:50pm  -  mph 1013.9mb 41f
4:40pm  -  mph 1013.9mb 41f
4:30pm  -  mph 1013.9mb 41f
4:20pm  -  mph 1013.9mb 40f
4:10pm  -  mph 1013.9mb 39f
4:00pm  -  mph 1013.9mb 40f
3:50pm  -  mph 1013.9mb 41f
3:40pm  -  mph 1013.9mb 40f
3:30pm  -  mph 1014.2mb 40f
3:20pm  -  mph 1014.2mb 39f
3:10pm  -  mph 1014.2mb 40f
3:00pm  -  mph 1014.2mb 41f
2:50pm  -  mph 1014.2mb 40f
2:40pm  -  mph 1014.2mb 40f
2:30pm  -  mph 1014.2mb 41f
2:20pm  -  3 mph 1013.9mb 40f
2:10pm 2 5 mph 1013.9mb 40f
2:00pm 5 6 mph 1013.9mb 40f
1:50pm 3 5 mph 1014.2mb 42f
1:40pm 3
mph
1014.2mb 41f
1:30pm 3 5 mph 1014.6mb 41f
1:20pm 3 5 mph 1014.6mb 41f
1:10pm 3 7 mph 1014.6mb 41f
1:00pm 6 7 mph 1014.6mb 41f
12:50pm 7
mph
1014.6mb 41f
12:40pm 6
mph
1014.6mb 41f
12:30pm 6
mph
1014.2mb 40f
12:20pm 3 6 mph 1014.6mb 41f
12:10pm 6 7 mph 1014.9mb 40f
12:00pm 5 6 mph 1014.9mb 40f
11:50am 2 5 mph 1014.9mb 41f
11:40am 3 6 mph 1014.6mb 40f
11:30am 5 6 mph 1014.6mb 40f
11:20am 6 9 mph 1014.6mb 39f
11:10am 9 11 mph 1014.6mb 40f
11:00am 11 13 mph 1014.6mb 40f
10:50am 11 13 mph 1014.6mb 41f
10:40am 10 11 mph 1014.6mb 41f
10:30am 7 8 mph 1014.6mb 42f
10:20am 5 6 mph 1014.6mb 42f
10:10am 2 3 mph 1014.6mb 43f
10:00am 2 3 mph 1014.6mb 43f
9:50am 3 5 mph 1014.6mb 43f
9:40am 5
mph
1014.6mb 43f
9:30am 5
mph
1014.6mb 43f
9:20am 3 5 mph 1014.6mb 43f
9:10am 2 3 mph 1014.6mb 43f
9:00am 3 6 mph 1014.6mb 43f
8:50am 3
mph
1014.2mb 43f
8:40am 2 5 mph 1014.2mb 43f
8:30am 3
mph
1014.2mb 43f
8:20am  -  mph 1014.2mb 43f
8:10am  -  mph 1014.2mb 43f
8:00am  -  1 mph 1014.2mb 43f
7:50am  -  2 mph 1014.2mb 43f
7:40am  -  2 mph 1013.9mb 43f
7:30am  -  mph 1013.9mb 43f
7:20am 1 2 mph 1013.9mb 43f
7:10am  -  2 mph 1013.5mb 43f
7:00am 1 6 mph 1013.9mb 43f
6:50am 5 7 mph 1013.5mb 43f
6:40am 3 6 mph 1013.5mb 43f
6:30am 3 6 mph 1013.5mb 43f
6:20am 2 5 mph 1013.5mb 43f
6:10am 2 6 mph 1013.2mb 43f
6:00am 2 6 mph 1012.9mb 43f
5:50am 5 7 mph 1012.9mb 43f
5:40am 6 8 mph 1012.5mb 43f
5:30am 8 9 mph 1012.5mb 43f
5:20am 7 8 mph 1012.5mb 43f
5:10am 6 9 mph 1012.9mb 43f
5:00am 7 10 mph 1012.9mb 44f
4:50am 2 5 mph 1012.5mb 44f
4:40am  -  5 mph 1012.5mb 43f
4:30am 3 6 mph 1012.5mb 44f
4:20am 3 6 mph 1012.5mb 44f
4:10am  -  mph 1012.2mb 42f
4:00am  -  1 mph 1012.2mb 43f
3:50am  -  6 mph 1012.2mb 44f
3:40am 2 6 mph 1012.2mb 44f
3:30am 3 7 mph 1012.2mb 44f
3:20am 2 7 mph 1012.2mb 44f
3:10am 2 5 mph 1012.5mb 43f
3:00am 2 5 mph 1012.5mb 42f
2:50am  -  1 mph 1012.2mb 42f
2:40am  -  1 mph 1012.2mb 42f
2:30am 2
mph
1012.2mb 42f
2:20am  -  2 mph 1012.2mb 42f
2:10am  -  mph 1012.2mb 41f
2:00am  -  2 mph 1012.2mb 41f
1:50am 1 3 mph 1011.9mb 40f
1:40am  -  3 mph 1011.5mb 39f
1:30am 2 3 mph 1011.5mb 39f
1:20am 2 6 mph 1011.5mb 38f
1:10am 3 5 mph 1011.5mb 38f
1:00am 2 3 mph 1011.5mb 39f
12:50am  -  3 mph 1011.5mb 39f
12:40am 2 3 mph 1011.5mb 40f
12:30am  -  2 mph 1011.9mb 40f
12:20am  -  mph 1012.2mb 40f
12:10am  -  mph 1012.2mb 40f
12:00am  -  mph 1011.9mb 40f
Sun 03/26 11:50pm  -  mph 1011.9mb 40f
11:40pm  -  2 mph 1011.9mb 40f
11:30pm  -  mph 1011.9mb 40f
11:20pm  -  mph 1012.2mb 40f
11:10pm  -  mph 1012.2mb 40f
11:00pm  -  mph 1012.2mb 40f
10:50pm  -  1 mph 1012.2mb 40f
10:40pm  -  mph 1012.2mb 40f
10:30pm  -  3 mph 1011.9mb 40f
10:20pm 3 5 mph 1011.9mb 40f
10:10pm 3 5 mph 1011.9mb 40f
10:00pm 3 5 mph 1011.5mb 41f
9:50pm  -  2 mph 1011.9mb 40f
9:40pm 3 6 mph 1011.5mb 39f
9:30pm 7 8 mph 1011.5mb 39f
9:20pm 2 3 mph 1011.5mb 39f
9:10pm 1 3 mph 1011.5mb 39f
9:00pm 2 3 mph 1011.5mb 39f
8:50pm 2 6 mph 1011.5mb 39f
8:40pm 6
mph
1011.5mb 39f
8:30pm 3 5 mph 1011.2mb 39f
8:20pm  -  2 mph 1011.2mb 39f
8:10pm 1 3 mph 1011.2mb 39f
8:00pm 3
mph
1011.2mb 39f
7:50pm 2 3 mph 1010.8mb 39f
7:40pm 3
mph
1010.8mb 39f
7:30pm 3
mph
1010.8mb 39f
7:20pm 2 5 mph 1010.8mb 39f
7:10pm 3 5 mph 1010.8mb 39f
7:00pm 2 5 mph 1010.5mb 39f
6:50pm 5 7 mph 1010.5mb 39f
6:40pm 5 6 mph 1010.5mb 39f
6:30pm 5 6 mph 1010.5mb 38f
6:20pm 5 6 mph 1010.5mb 38f
6:10pm 5 6 mph 1010.2mb 38f
6:00pm 5
mph
1010.2mb 38f
5:50pm 3 5 mph 1010.2mb 38f
5:40pm 3 5 mph 1010.2mb 39f
5:30pm 2 5 mph 1010.2mb 39f
5:20pm 3 5 mph 1009.8mb 39f
5:10pm 3 5 mph 1009.8mb 39f
5:00pm 5 7 mph 1009.8mb 39f
4:50pm 5 7 mph 1009.8mb 39f
4:40pm 7 8 mph 1009.8mb 39f
4:30pm 6
mph
1009.8mb 41f
4:20pm 6 7 mph 1009.8mb 41f
4:10pm 8
mph
1009.8mb 40f
4:00pm 7 8 mph 1009.5mb 40f
3:50pm 7
mph
1009.5mb 40f
3:40pm 6
mph
1009.8mb 40f
3:30pm 5 6 mph 1009.8mb 40f
3:20pm 3
mph
1009.8mb 40f
3:10pm 3
mph
1009.8mb 40f
3:00pm 2 3 mph 1010.2mb 40f
2:50pm 2 3 mph 1010.2mb 40f
2:40pm 2 5 mph 1010.2mb 40f
2:30pm 3 5 mph 1010.2mb 40f
2:20pm 3 5 mph 1010.2mb 40f
2:10pm 3 5 mph 1010.2mb 40f
2:00pm 6
mph
1010.2mb 40f
1:50pm 6
mph
1010.2mb 41f
1:40pm 5
mph
1010.2mb 40f
1:30pm 5 6 mph 1010.2mb 40f
1:20pm 5 6 mph 1010.2mb 40f
1:10pm 5
mph
1010.5mb 40f
1:00pm 3 5 mph 1010.5mb 40f
12:50pm 3 6 mph 1010.5mb 40f
12:40pm 5 6 mph 1010.8mb 39f
12:30pm 5 6 mph 1010.8mb 39f
12:20pm 6 7 mph 1010.8mb 39f
12:10pm 6
mph
1010.8mb 39f
12:00pm 5 7 mph 1010.8mb 39f
11:50am 5 8 mph 1010.8mb 39f
11:40am 7 8 mph 1010.8mb 39f
11:30am 7 8 mph 1011.2mb 39f
11:20am 6 8 mph 1011.2mb 39f
11:10am 7 8 mph 1011.2mb 39f
11:00am 9 10 mph 1011.2mb 39f
10:50am 10 11 mph 1011.5mb 39f
10:40am 10 11 mph 1011.5mb 39f
10:30am 11 13 mph 1011.5mb 40f
10:20am 11 14 mph 1011.5mb 39f
10:10am 14
mph
1011.5mb 40f
10:00am 13 14 mph 1011.5mb 40f
9:50am 14
mph
1011.5mb 40f
9:40am 11 13 mph 1011.5mb 41f
9:30am 10 11 mph 1011.5mb 41f
9:20am 10
mph
1011.5mb 40f
9:10am 9 10 mph 1011.9mb 40f
9:00am 9
mph
1011.9mb 42f
8:50am 8 11 mph 1011.9mb 42f
8:40am 11 13 mph 1011.9mb 41f
8:30am 9
mph
1012.2mb 41f
8:20am 8 9 mph 1012.2mb 41f
8:10am 9 10 mph 1012.2mb 42f
8:00am 9 10 mph 1012.2mb 41f
7:50am 9 11 mph 1012.2mb 42f
7:40am 10 11 mph 1012.5mb 40f
7:30am 9 10 mph 1012.5mb 40f
7:20am 9 11 mph 1012.5mb 39f
7:10am 11 13 mph 1012.5mb 39f
7:00am 10 11 mph 1012.5mb 39f
6:50am 10 11 mph 1012.5mb 39f
6:40am 10 11 mph 1012.5mb 39f
6:30am 11
mph
1012.5mb 39f
6:20am 11 13 mph 1012.5mb 39f
6:10am 13 14 mph 1012.5mb 39f
6:00am 13 15 mph 1012.5mb 39f
5:50am 14 15 mph 1012.5mb 38f
5:40am 14 15 mph 1012.5mb 38f
5:30am 14
mph
1012.5mb 39f
5:20am 14 15 mph 1012.5mb 39f
5:10am 14 15 mph 1012.9mb 39f
5:00am 14 15 mph 1012.9mb 39f
4:50am 13 14 mph 1012.9mb 38f
4:40am 14 15 mph 1012.9mb 39f
4:30am 14 15 mph 1012.9mb 39f
4:20am 13 15 mph 1013.2mb 38f
4:10am 14 15 mph 1013.2mb 39f
4:00am 13 14 mph 1013.2mb 39f
3:50am 13 14 mph 1013.5mb 39f
3:40am 14 15 mph 1013.2mb 39f
3:30am 14 15 mph 1013.5mb 39f
3:20am 13 15 mph 1013.5mb 39f
3:10am 14 15 mph 1013.9mb 39f
3:00am 13 16 mph 1013.9mb 39f
2:50am 11 15 mph 1013.9mb 39f
2:40am 14 15 mph 1013.9mb 39f
2:30am 14 16 mph 1014.2mb 39f
2:20am 15 16 mph 1014.2mb 39f
2:10am 15 17 mph 1014.2mb 39f
2:00am 16 18 mph 1014.2mb 39f
1:50am 15 17 mph 1014.6mb 38f
1:40am 16 17 mph 1014.6mb 39f
1:30am 15 17 mph 1014.6mb 38f
1:20am 15 18 mph 1014.9mb 38f
1:10am 16 17 mph 1014.9mb 38f
1:00am 15 18 mph 1014.9mb 38f
12:50am 16 18 mph 1015.2mb 38f
12:40am 15 20 mph 1015.2mb 38f
12:30am 17 20 mph 1015.2mb 38f
12:20am 18 21 mph 1015.2mb 38f
12:10am 17 20 mph 1015.6mb 38f
12:00am 17 20 mph 1015.9mb 38f
Sat 03/25 11:50pm 17 20 mph 1015.9mb 38f
11:40pm 18 22 mph 1015.9mb 38f
11:30pm 20 22 mph 1015.9mb 38f
11:20pm 20 22 mph 1016.3mb 39f
11:10pm 20 22 mph 1016.3mb 39f
11:00pm 17 21 mph 1016.6mb 38f
10:50pm 20 22 mph 1016.6mb 39f
10:40pm 20 22 mph 1016.6mb 39f
10:30pm 17 22 mph 1016.6mb 39f
10:20pm 21 23 mph 1016.6mb 39f
10:10pm 17 23 mph 1016.6mb 38f
10:00pm 20 23 mph 1016.6mb 38f
9:50pm 21 23 mph 1016.6mb 38f
9:40pm 18 24 mph 1016.9mb 39f
9:30pm 22 24 mph 1016.9mb 39f
9:20pm 22 24 mph 1016.9mb 39f
9:10pm 22 26 mph 1016.9mb 39f
9:00pm 20 23 mph 1016.9mb 39f
8:50pm 20 23 mph 1016.9mb 39f
8:40pm 21 23 mph 1016.9mb 38f
8:30pm 20 22 mph 1017.3mb 38f
8:20pm 21 25 mph 1016.9mb 38f
8:10pm 20 24 mph 1017.3mb 38f
8:00pm 21 23 mph 1016.9mb 38f
7:50pm 18 23 mph 1016.9mb 38f
7:40pm 20 22 mph 1016.9mb 38f
7:30pm 20 23 mph 1016.9mb 38f
7:20pm 20 24 mph 1016.9mb 38f
7:10pm 20 22 mph 1016.9mb 38f
7:00pm 20 22 mph 1016.9mb 38f
6:50pm 21 23 mph 1016.9mb 38f
6:40pm 20 23 mph 1017.3mb 38f
6:30pm 18 22 mph 1017.6mb 38f
6:20pm 20 22 mph 1017.3mb 38f
6:10pm 21 23 mph 1017.3mb 38f
6:00pm 18 20 mph 1017.3mb 38f
5:50pm 17 18 mph 1017.3mb 38f
5:40pm 17 20 mph 1016.9mb 38f
5:30pm 17 20 mph 1016.9mb 38f
5:20pm 17 20 mph 1017.3mb 38f
5:10pm 16 20 mph 1017.3mb 38f
5:00pm 17 20 mph 1017.3mb 38f
4:50pm 17 20 mph 1017.3mb 38f
4:40pm 17 20 mph 1017.3mb 38f
4:30pm 16 20 mph 1017.6mb 38f
4:20pm 17 20 mph 1017.6mb 38f
4:10pm 16 20 mph 1017.6mb 38f
4:00pm 17 18 mph 1017.6mb 38f
3:50pm 17 18 mph 1017.6mb 38f
3:40pm 17 18 mph 1017.6mb 38f
3:30pm 16 20 mph 1017.9mb 38f
3:20pm 18 20 mph 1017.6mb 38f
3:10pm 17 20 mph 1017.6mb 38f
3:00pm 16 20 mph 1017.9mb 38f
2:50pm 16 18 mph 1017.9mb 38f
2:40pm 17 20 mph 1017.9mb 38f
2:30pm 16 20 mph 1017.9mb 38f
2:20pm 16 20 mph 1017.9mb 38f
2:10pm 17 20 mph 1017.9mb 38f
2:00pm 16 18 mph 1018.3mb 38f
1:50pm 16 21 mph 1018.3mb 38f
1:40pm 17 21 mph 1018.6mb 38f
1:30pm 17 20 mph 1018.6mb 38f
1:20pm 16 20 mph 1019mb 38f
1:10pm 17 20 mph 1019mb 38f
1:00pm 14 18 mph 1019.3mb 38f
12:50pm 15 20 mph 1019mb 38f